CST,Max TemperatureF,Mean TemperatureF,Min TemperatureF,Max Dew PointF,MeanDew PointF,Min DewpointF,Max Humidity, Mean Humidity, Min Humidity, Max Sea Level PressureIn, Mean Sea Level PressureIn, Min Sea Level PressureIn, Max VisibilityMiles, Mean VisibilityMiles, Min VisibilityMiles, Max Wind SpeedMPH, Mean Wind SpeedMPH, Max Gust SpeedMPH,PrecipitationIn, CloudCover, Events, WindDirDegrees
2013-1-1,20,12,4,12,8,1,92,80,67,30.40,30.30,30.20,9,8,6,10,6,13,0.00,1,,229
2013-1-2,35,23,11,26,19,6,88,79,69,30.29,30.18,30.08,10,9,7,14,6,17,0.00,6,,267
2013-1-3,31,23,15,25,18,13,81,72,63,30.48,30.40,30.29,10,10,6,18,6,21,0.00,5,,316
2013-1-4,30,20,9,18,12,6,96,75,53,30.37,30.29,30.21,10,10,7,14,5,15,0.00,0,,199
2013-1-5,31,21,11,22,17,9,92,75,58,30.29,30.14,30.06,10,8,6,26,9,32,0.00,2,,251
2013-1-6,34,22,9,22,16,6,92,77,61,30.40,30.30,30.17,10,10,7,15,5,18,0.00,1,,230
2013-1-7,38,28,17,27,23,16,91,76,61,30.14,30.05,29.99,10,9,6,25,10,32,0.00,0,,235
2013-1-8,35,24,12,29,21,10,92,81,60,30.19,30.00,29.89,10,8,4,15,5,,0.00,0,,246
2013-1-9,45,32,18,30,24,17,92,73,53,30.48,30.38,30.24,10,9,7,12,1,13,0.00,0,,193
2013-1-10,39,30,21,36,32,19,100,93,60,30.35,29.96,29.68,10,4,0,13,5,,0.12,6,Fog-Rain,145
2013-1-11,50,38,25,43,35,15,100,85,69,29.82,29.58,29.38,10,5,0,30,13,41,0.00,5,Fog,199
2013-1-12,26,19,12,16,7,4,68,57,45,30.22,30.09,29.81,10,10,10,24,13,29,0.00,1,,308
2013-1-13,21,14,7,5,3,1,80,63,45,30.43,30.32,30.22,10,10,10,16,7,21,0.00,0,,305
2013-1-14,29,17,5,11,7,1,87,65,42,30.55,30.45,30.36,10,10,10,13,2,15,0.00,1,,243
2013-1-15,35,21,6,18,13,3,88,68,47,30.41,30.27,30.06,10,10,10,17,6,21,0.00,0,,205
2013-1-16,52,36,19,31,25,15,92,67,41,30.29,30.08,29.98,10,10,9,18,8,24,0.00,2,,277
2013-1-17,46,33,19,31,26,18,100,79,58,30.51,30.42,30.33,10,5,0,9,2,12,0.00,2,Fog,160
2013-1-18,52,38,23,31,27,22,100,71,41,30.30,30.07,29.94,10,10,6,24,10,30,0.00,0,,205
2013-1-19,54,39,23,29,24,12,88,62,35,30.37,30.09,29.92,10,10,10,25,11,32,0.00,0,,320
2013-1-20,24,19,13,14,8,6,80,65,50,30.49,30.43,30.35,10,10,10,17,7,20,0.00,3,,17
2013-1-21,19,15,10,11,3,-8,80,61,42,30.53,30.45,30.39,10,8,2,21,6,26,0.06,8,Snow,325
2013-1-22,24,17,10,11,8,5,83,69,54,30.45,30.37,30.31,10,9,2,12,5,15,0.01,3,Snow,160
2013-1-23,34,22,9,17,11,4,83,65,47,30.55,30.36,30.23,10,10,7,23,9,25,0.00,0,,15
2013-1-24,21,12,3,4,-2,-6,79,61,43,30.61,30.43,30.20,10,10,10,16,9,20,0.00,4,,114
2013-1-25,53,33,13,22,15,5,81,55,28,30.27,30.23,30.18,10,10,8,13,3,15,0.00,0,,327
2013-1-26,58,38,17,25,20,14,92,58,23,30.28,30.16,30.01,10,9,6,23,9,29,0.00,1,,136
2013-1-27,44,40,36,43,37,24,100,75,49,29.97,29.82,29.70,10,4,0,17,8,22,0.18,8,Fog-Rain,160
2013-1-28,44,39,34,43,38,34,100,96,92,29.89,29.76,29.58,4,1,0,10,4,13,0.00,8,Fog,94
2013-1-29,39,35,30,39,31,28,100,91,82,29.73,29.67,29.60,9,4,1,32,16,39,0.12,8,Snow,348
2013-1-30,30,18,6,28,16,6,96,79,62,30.01,29.84,29.68,10,4,0,35,16,39,0.14,7,Fog-Snow,334
2013-1-31,17,9,0,11,0,-7,92,73,53,30.52,30.30,30.02,10,9,3,32,12,39,0.00,3,Snow,330